Location: White Ridge parking lot
(35.4984°N, 106.8413°W)
Time: 03:21:30
(UTC-06:00)

ITAMSAT 1 - Pass Details

Date: 23 September 2019
Orbit: 784 x 797 km, 98.9° (Epoch: 14 October)

Event Time Altitude Azimuth Distance (km) Brightness Sun altitude
Rises 05:25:50 0° 30° (NNE) 3,279 11.5 -19.0°
Reaches altitude 10° 05:28:41 10° 45° (NE) 2,348 11.0 -18.4°
Maximum altitude 05:32:38 22° 95° (E) 1,667 10.2 -17.6°
Drops below altitude 10° 05:36:34 10° 145° (SE) 2,342 10.4 -16.9°
Sets 05:39:23 0° 161° (SSE) 3,269 11.0 -16.3°
